Location: Unspecified
(0.0000°N, 0.0000°E)
Time: 08:56:58
(UTC+00:00)

CZ-3B DEB - Pass Details

Date: 22 February 2026
Orbit: 979 x 42142 km, 20.1° (Epoch: 15 November)

Event Time Altitude Azimuth Distance (km) Brightness Sun altitude
Rises 04:57:56 0° 108° (ESE) 45,968 ? -18.6°
Reaches altitude 10° 06:12:25 10° 110° (ESE) 46,848 ? -0.3°
Maximum altitude 10:34:08 36° 118° (ESE) 30,077 ? 63.3°
Drops below altitude 10° 12:13:04 10° 104° (ESE) 14,417 ? 79.9°
Sets 12:22:08 0° 100° (E) 13,117 ? 79.7°
